Time,TemperatureF,DewpointF,PressureIn,WindDirection,WindDirectionDegrees,WindSpeedMPH,WindSpeedGustMPH,Humidity,HourlyPrecipIn,Conditions,Clouds,dailyrainin,SoftwareType,DateUTC
2013-03-14 00:01:00,48.8,0.0,30.15,South,173,0.0,1.0,0,0.00,,OVC150,0.00,VWS V13.01,2013-03-14 07:01:00,
2013-03-14 00:06:00,48.7,0.0,30.15,South,173,0.0,1.0,0,0.00,,OVC150,0.00,VWS V13.01,2013-03-14 07:06:00,
2013-03-14 00:11:00,48.6,0.0,30.15,South,173,0.0,1.0,0,0.00,,OVC150,0.00,VWS V13.01,2013-03-14 07:11:00,
2013-03-14 00:16:00,48.5,0.0,30.15,South,173,0.0,0.0,0,0.00,,OVC150,0.00,VWS V13.01,2013-03-14 07:16:00,
2013-03-14 00:22:00,48.3,0.0,30.15,South,173,0.0,0.0,0,0.00,,OVC150,0.00,VWS V13.01,2013-03-14 07:22:00,
2013-03-14 00:27:00,48.2,0.0,30.15,South,173,0.0,0.0,0,0.00,,OVC150,0.00,VWS V13.01,2013-03-14 07:27:00,
2013-03-14 00:32:00,48.1,0.0,30.16,South,173,0.0,0.0,0,0.00,,OVC150,0.00,VWS V13.01,2013-03-14 07:32:00,
2013-03-14 00:37:00,48.0,0.0,30.16,South,173,0.0,0.0,0,0.00,,OVC150,0.00,VWS V13.01,2013-03-14 07:37:00,
2013-03-14 00:42:00,47.9,0.0,30.16,South,173,0.0,0.0,0,0.00,,CLR,0.00,VWS V13.01,2013-03-14 07:42:00,
2013-03-14 00:47:00,47.8,0.0,30.16,South,173,0.0,0.0,0,0.00,,CLR,0.00,VWS V13.01,2013-03-14 07:47:00,
2013-03-14 00:52:00,47.7,0.0,30.15,South,173,0.0,0.0,0,0.00,,CLR,0.00,VWS V13.01,2013-03-14 07:52:00,
2013-03-14 00:57:00,47.6,0.0,30.15,South,173,0.0,0.0,0,0.00,,CLR,0.00,VWS V13.01,2013-03-14 07:57:00,
2013-03-14 01:02:00,47.6,0.0,30.14,South,173,0.0,0.0,0,0.00,,CLR,0.00,VWS V13.01,2013-03-14 08:02:00,
2013-03-14 01:07:00,47.5,0.0,30.14,South,173,0.0,0.0,0,0.00,,CLR,0.00,VWS V13.01,2013-03-14 08:07:00,
2013-03-14 01:12:00,47.5,0.0,30.14,South,173,0.0,0.0,0,0.00,,CLR,0.00,VWS V13.01,2013-03-14 08:12:00,
2013-03-14 01:17:00,47.4,0.0,30.13,South,173,0.0,0.0,0,0.00,,CLR,0.00,VWS V13.01,2013-03-14 08:17:00,
2013-03-14 01:23:00,47.4,0.0,30.13,South,173,0.0,0.0,0,0.00,,CLR,0.00,VWS V13.01,2013-03-14 08:23:00,
2013-03-14 01:28:00,47.3,0.0,30.13,South,173,1.0,1.0,0,0.00,,CLR,0.00,VWS V13.01,2013-03-14 08:28:00,
2013-03-14 01:33:00,47.2,0.0,30.13,South,173,0.0,1.0,0,0.00,,CLR,0.00,VWS V13.01,2013-03-14 08:33:00,
2013-03-14 01:38:00,47.0,0.0,30.13,South,173,0.0,1.0,0,0.00,,CLR,0.00,VWS V13.01,2013-03-14 08:38:00,
2013-03-14 01:43:00,46.8,0.0,30.13,South,173,0.0,1.0,0,0.00,,CLR,0.00,VWS V13.01,2013-03-14 08:43:00,
2013-03-14 01:48:00,46.7,0.0,30.13,South,173,0.0,0.0,0,0.00,,CLR,0.00,VWS V13.01,2013-03-14 08:48:00,
2013-03-14 01:53:00,46.6,0.0,30.13,South,173,0.0,0.0,0,0.00,,CLR,0.00,VWS V13.01,2013-03-14 08:53:00,
2013-03-14 01:59:00,46.5,0.0,30.13,South,173,0.0,0.0,0,0.00,,CLR,0.00,VWS V13.01,2013-03-14 08:59:00,
2013-03-14 02:04:00,46.5,0.0,30.14,South,173,0.0,0.0,0,0.00,,CLR,0.00,VWS V13.01,2013-03-14 09:04:00,
2013-03-14 02:09:00,46.5,0.0,30.13,South,173,0.0,0.0,0,0.00,,CLR,0.00,VWS V13.01,2013-03-14 09:09:00,
2013-03-14 02:14:00,46.5,0.0,30.13,South,173,0.0,0.0,0,0.00,,CLR,0.00,VWS V13.01,2013-03-14 09:14:00,
2013-03-14 02:19:00,46.4,0.0,30.13,South,173,0.0,0.0,0,0.00,,CLR,0.00,VWS V13.01,2013-03-14 09:19:00,
2013-03-14 02:24:00,46.4,0.0,30.12,South,173,0.0,0.0,0,0.00,,CLR,0.00,VWS V13.01,2013-03-14 09:24:00,
2013-03-14 02:29:00,46.3,0.0,30.12,South,173,0.0,0.0,0,0.00,,CLR,0.00,VWS V13.01,2013-03-14 09:29:00,
2013-03-14 02:34:00,46.2,0.0,30.12,South,173,0.0,0.0,0,0.00,,CLR,0.00,VWS V13.01,2013-03-14 09:34:00,
2013-03-14 02:39:00,46.1,0.0,30.12,South,173,0.0,0.0,0,0.00,,CLR,0.00,VWS V13.01,2013-03-14 09:39:00,
2013-03-14 02:44:00,46.1,0.0,30.12,South,173,0.0,0.0,0,0.00,,CLR,0.00,VWS V13.01,2013-03-14 09:44:00,
2013-03-14 02:49:00,46.1,0.0,30.12,South,173,0.0,0.0,0,0.00,,CLR,0.00,VWS V13.01,2013-03-14 09:49:00,
2013-03-14 02:55:00,46.0,0.0,30.12,South,173,0.0,0.0,0,0.00,,CLR,0.00,VWS V13.01,2013-03-14 09:55:00,
2013-03-14 03:00:00,45.9,0.0,30.12,South,173,0.0,0.0,0,0.00,,CLR,0.00,VWS V13.01,2013-03-14 10:00:00,
2013-03-14 03:05:00,45.8,0.0,30.12,South,173,0.0,0.0,0,0.00,,CLR,0.00,VWS V13.01,2013-03-14 10:05:00,
2013-03-14 03:10:00,45.6,0.0,30.12,South,173,0.0,0.0,0,0.00,,CLR,0.00,VWS V13.01,2013-03-14 10:10:00,
2013-03-14 03:15:00,45.5,0.0,30.12,South,173,0.0,0.0,0,0.00,,CLR,0.00,VWS V13.01,2013-03-14 10:15:00,
2013-03-14 03:20:00,45.3,0.0,30.12,South,173,0.0,0.0,0,0.00,,CLR,0.00,VWS V13.01,2013-03-14 10:20:00,
2013-03-14 03:25:00,45.1,0.0,30.12,South,173,0.0,0.0,0,0.00,,CLR,0.00,VWS V13.01,2013-03-14 10:25:00,
2013-03-14 03:30:00,44.9,0.0,30.12,South,173,0.0,0.0,0,0.00,,CLR,0.00,VWS V13.01,2013-03-14 10:30:00,
2013-03-14 03:35:00,44.7,0.0,30.12,South,173,0.0,0.0,0,0.00,,CLR,0.00,VWS V13.01,2013-03-14 10:35:00,
2013-03-14 03:40:00,44.6,0.0,30.12,South,173,0.0,0.0,0,0.00,,CLR,0.00,VWS V13.01,2013-03-14 10:40:00,
2013-03-14 03:45:00,44.4,0.0,30.12,South,173,0.0,0.0,0,0.00,,CLR,0.00,VWS V13.01,2013-03-14 10:45:00,
2013-03-14 03:50:00,44.3,0.0,30.10,South,173,0.0,0.0,0,0.00,,CLR,0.00,VWS V13.01,2013-03-14 10:50:00,
2013-03-14 03:55:00,44.2,0.0,30.11,South,173,0.0,0.0,0,0.00,,CLR,0.00,VWS V13.01,2013-03-14 10:55:00,
2013-03-14 04:00:00,44.1,0.0,30.11,South,173,0.0,0.0,0,0.00,,CLR,0.00,VWS V13.01,2013-03-14 11:00:00,
2013-03-14 04:05:00,44.0,0.0,30.11,South,173,0.0,0.0,0,0.00,,CLR,0.00,VWS V13.01,2013-03-14 11:05:00,
2013-03-14 04:10:00,44.0,0.0,30.11,South,173,0.0,0.0,0,0.00,,CLR,0.00,VWS V13.01,2013-03-14 11:10:00,
2013-03-14 04:15:00,43.9,0.0,30.11,South,173,0.0,0.0,0,0.00,,CLR,0.00,VWS V13.01,2013-03-14 11:15:00,
2013-03-14 04:20:00,43.8,0.0,30.11,South,173,0.0,0.0,0,0.00,,CLR,0.00,VWS V13.01,2013-03-14 11:20:00,
2013-03-14 04:25:00,43.8,0.0,30.10,South,173,0.0,0.0,0,0.00,,CLR,0.00,VWS V13.01,2013-03-14 11:25:00,
2013-03-14 04:31:00,43.7,0.0,30.10,South,173,0.0,0.0,0,0.00,,CLR,0.00,VWS V13.01,2013-03-14 11:31:00,
2013-03-14 04:36:00,43.6,0.0,30.10,South,173,0.0,0.0,0,0.00,,CLR,0.00,VWS V13.01,2013-03-14 11:36:00,
2013-03-14 04:41:00,43.6,0.0,30.10,South,173,0.0,0.0,0,0.00,,CLR,0.00,VWS V13.01,2013-03-14 11:41:00,
2013-03-14 04:46:00,43.4,0.0,30.10,South,173,0.0,0.0,0,0.00,,CLR,0.00,VWS V13.01,2013-03-14 11:46:00,
2013-03-14 04:51:00,43.3,0.0,30.10,South,173,0.0,0.0,0,0.00,,CLR,0.00,VWS V13.01,2013-03-14 11:51:00,
2013-03-14 04:57:00,43.3,0.0,30.10,South,173,0.0,0.0,0,0.00,,CLR,0.00,VWS V13.01,2013-03-14 11:57:00,
2013-03-14 05:02:00,43.2,0.0,30.09,South,173,0.0,0.0,0,0.00,,CLR,0.00,VWS V13.01,2013-03-14 12:02:00,
2013-03-14 05:07:00,43.2,0.0,30.09,South,173,0.0,0.0,0,0.00,,CLR,0.00,VWS V13.01,2013-03-14 12:07:00,
2013-03-14 05:12:00,43.3,0.0,30.10,South,173,0.0,0.0,0,0.00,,CLR,0.00,VWS V13.01,2013-03-14 12:12:00,
2013-03-14 05:17:00,43.3,0.0,30.10,South,173,0.0,0.0,0,0.00,,CLR,0.00,VWS V13.01,2013-03-14 12:17:00,
2013-03-14 05:22:00,43.4,0.0,30.10,South,173,0.0,0.0,0,0.00,,CLR,0.00,VWS V13.01,2013-03-14 12:22:00,
2013-03-14 05:27:00,43.6,0.0,30.11,South,173,0.0,0.0,0,0.00,,CLR,0.00,VWS V13.01,2013-03-14 12:27:00,
2013-03-14 05:33:00,43.6,0.0,30.11,South,173,0.0,0.0,0,0.00,,CLR,0.00,VWS V13.01,2013-03-14 12:33:00,
2013-03-14 05:38:00,43.7,0.0,30.11,South,173,0.0,0.0,0,0.00,,CLR,0.00,VWS V13.01,2013-03-14 12:38:00,
2013-03-14 05:43:00,43.8,0.0,30.11,South,173,0.0,0.0,0,0.00,,CLR,0.00,VWS V13.01,2013-03-14 12:43:00,
2013-03-14 05:48:00,43.9,0.0,30.11,South,173,0.0,0.0,0,0.00,,CLR,0.00,VWS V13.01,2013-03-14 12:48:00,
2013-03-14 05:53:00,43.9,0.0,30.11,South,173,0.0,0.0,0,0.00,,CLR,0.00,VWS V13.01,2013-03-14 12:53:00,
2013-03-14 05:58:00,44.0,0.0,30.11,South,173,0.0,0.0,0,0.00,,CLR,0.00,VWS V13.01,2013-03-14 12:58:00,
2013-03-14 06:03:00,44.1,0.0,30.12,South,173,0.0,0.0,0,0.00,,CLR,0.00,VWS V13.01,2013-03-14 13:03:00,
2013-03-14 06:08:00,44.0,0.0,30.13,SSW,196,2.0,3.0,0,0.00,,CLR,0.00,VWS V13.01,2013-03-14 13:08:00,
2013-03-14 06:13:00,44.0,0.0,30.12,SSW,194,2.0,3.0,0,0.00,,CLR,0.00,VWS V13.01,2013-03-14 13:13:00,
2013-03-14 06:19:00,44.0,0.0,30.13,SW,235,1.0,3.0,0,0.00,,CLR,0.00,VWS V13.01,2013-03-14 13:19:00,
2013-03-14 06:24:00,44.0,0.0,30.12,South,191,2.0,3.0,0,0.00,,CLR,0.00,VWS V13.01,2013-03-14 13:24:00,
2013-03-14 06:29:00,44.0,0.0,30.12,SSW,192,0.0,3.0,0,0.00,,CLR,0.00,VWS V13.01,2013-03-14 13:29:00,
2013-03-14 06:34:00,44.0,0.0,30.12,South,191,0.0,1.0,0,0.00,,CLR,0.00,VWS V13.01,2013-03-14 13:34:00,
2013-03-14 06:39:00,44.1,0.0,30.12,South,191,0.0,1.0,0,0.00,,CLR,0.00,VWS V13.01,2013-03-14 13:39:00,
2013-03-14 06:44:00,44.1,0.0,30.12,SSW,192,0.0,1.0,0,0.00,,FEW230,0.00,VWS V13.01,2013-03-14 13:44:00,
2013-03-14 06:49:00,44.2,0.0,30.12,SSW,192,0.0,0.0,0,0.00,,FEW230,0.00,VWS V13.01,2013-03-14 13:49:00,
2013-03-14 06:54:00,44.2,0.0,30.13,SSW,192,0.0,0.0,0,0.00,,FEW230,0.00,VWS V13.01,2013-03-14 13:54:00,
2013-03-14 06:59:00,44.3,0.0,30.12,South,191,0.0,0.0,0,0.00,,FEW230,0.00,VWS V13.01,2013-03-14 13:59:00,
2013-03-14 07:04:00,44.3,0.0,30.13,SSW,192,0.0,0.0,0,0.00,,FEW230,0.00,VWS V13.01,2013-03-14 14:04:00,
2013-03-14 07:09:00,44.4,0.0,30.14,SSW,192,0.0,0.0,0,0.00,,FEW230,0.00,VWS V13.01,2013-03-14 14:09:00,
2013-03-14 07:14:00,44.5,0.0,30.13,SSW,192,0.0,0.0,0,0.00,,FEW230,0.00,VWS V13.01,2013-03-14 14:14:00,
2013-03-14 07:19:00,44.6,0.0,30.12,SSW,192,1.0,1.0,0,0.00,,FEW230,0.00,VWS V13.01,2013-03-14 14:19:00,
2013-03-14 07:24:00,44.7,0.0,30.12,SW,234,2.0,2.0,0,0.00,,FEW230,0.00,VWS V13.01,2013-03-14 14:24:00,
2013-03-14 07:29:00,44.8,0.0,30.12,SW,234,0.0,0.0,0,0.00,,FEW230,0.00,VWS V13.01,2013-03-14 14:29:00,
2013-03-14 07:34:00,44.9,0.0,30.12,SW,234,0.0,1.0,0,0.00,,FEW230,0.00,VWS V13.01,2013-03-14 14:34:00,
2013-03-14 07:39:00,44.9,0.0,30.12,SW,234,0.0,1.0,0,0.00,,FEW230,0.00,VWS V13.01,2013-03-14 14:39:00,
2013-03-14 07:44:00,45.0,0.0,30.13,SW,234,0.0,0.0,0,0.00,,OVC220,0.00,VWS V13.01,2013-03-14 14:44:00,
2013-03-14 07:49:00,45.1,0.0,30.13,SW,234,0.0,0.0,0,0.00,,OVC220,0.00,VWS V13.01,2013-03-14 14:49:00,
2013-03-14 07:55:00,45.2,0.0,30.13,SW,234,0.0,1.0,0,0.00,,OVC220,0.00,VWS V13.01,2013-03-14 14:55:00,
2013-03-14 08:00:00,45.2,0.0,30.13,SW,234,0.0,0.0,0,0.00,,OVC220,0.00,VWS V13.01,2013-03-14 15:00:00,
2013-03-14 08:05:00,45.2,0.0,30.14,SW,234,0.0,0.0,0,0.00,,OVC220,0.00,VWS V13.01,2013-03-14 15:05:00,
2013-03-14 08:10:00,45.3,0.0,30.14,SW,234,0.0,0.0,0,0.00,,OVC220,0.00,VWS V13.01,2013-03-14 15:10:00,
2013-03-14 08:15:00,45.4,0.0,30.14,SW,234,0.0,0.0,0,0.00,,OVC220,0.00,VWS V13.01,2013-03-14 15:15:00,
2013-03-14 08:20:00,45.5,0.0,30.14,West,260,0.0,0.0,0,0.00,,OVC220,0.00,VWS V13.01,2013-03-14 15:20:00,
2013-03-14 08:25:00,45.6,0.0,30.14,North,350,0.0,2.0,0,0.00,,OVC220,0.00,VWS V13.01,2013-03-14 15:25:00,
2013-03-14 08:30:00,45.7,0.0,30.15,North,351,0.0,0.0,0,0.00,,OVC220,0.00,VWS V13.01,2013-03-14 15:30:00,
2013-03-14 08:35:00,45.8,0.0,30.15,North,351,0.0,0.0,0,0.00,,OVC220,0.00,VWS V13.01,2013-03-14 15:35:00,
2013-03-14 08:40:00,45.9,0.0,30.14,North,351,0.0,0.0,0,0.00,,OVC220,0.00,VWS V13.01,2013-03-14 15:40:00,
2013-03-14 08:45:00,46.0,0.0,30.14,North,351,1.0,1.0,0,0.00,,OVC220,0.00,VWS V13.01,2013-03-14 15:45:00,
2013-03-14 08:50:00,46.1,0.0,30.15,North,351,0.0,1.0,0,0.00,,OVC220,0.00,VWS V13.01,2013-03-14 15:50:00,
2013-03-14 08:55:00,46.3,0.0,30.15,North,351,0.0,1.0,0,0.00,,OVC220,0.00,VWS V13.01,2013-03-14 15:55:00,
2013-03-14 09:01:00,46.4,0.0,30.15,North,351,0.0,0.0,0,0.00,,OVC220,0.00,VWS V13.01,2013-03-14 16:01:00,
2013-03-14 09:06:00,46.5,0.0,30.15,NNW,344,0.0,1.0,0,0.00,,OVC220,0.00,VWS V13.01,2013-03-14 16:06:00,
2013-03-14 09:11:00,46.7,0.0,30.15,East,94,0.0,1.0,0,0.00,,OVC220,0.00,VWS V13.01,2013-03-14 16:11:00,
2013-03-14 09:17:00,46.9,0.0,30.15,East,82,0.0,0.0,0,0.00,,OVC220,0.00,VWS V13.01,2013-03-14 16:17:00,
2013-03-14 09:22:00,47.1,0.0,30.14,ENE,75,0.0,1.0,0,0.00,,OVC220,0.00,VWS V13.01,2013-03-14 16:22:00,
2013-03-14 09:27:00,47.2,0.0,30.14,East,89,0.0,1.0,0,0.00,,OVC220,0.00,VWS V13.01,2013-03-14 16:27:00,
2013-03-14 09:32:00,47.4,0.0,30.14,NNE,12,0.0,2.0,0,0.00,,OVC220,0.00,VWS V13.01,2013-03-14 16:32:00,
2013-03-14 09:37:00,47.6,0.0,30.15,North,5,0.0,2.0,0,0.00,,OVC220,0.00,VWS V13.01,2013-03-14 16:37:00,
2013-03-14 09:42:00,47.6,0.0,30.15,North,9,1.0,2.0,0,0.00,,OVC190,0.00,VWS V13.01,2013-03-14 16:42:00,
2013-03-14 09:47:00,47.7,0.0,30.15,NNE,15,0.0,0.0,0,0.00,,OVC190,0.00,VWS V13.01,2013-03-14 16:47:00,
2013-03-14 09:52:00,47.7,0.0,30.15,NNE,15,0.0,0.0,0,0.00,,OVC190,0.00,VWS V13.01,2013-03-14 16:52:00,
2013-03-14 09:58:00,47.8,0.0,30.16,South,189,0.0,3.0,0,0.00,,OVC190,0.00,VWS V13.01,2013-03-14 16:58:00,
2013-03-14 10:03:00,48.0,0.0,30.16,SSW,207,2.0,3.0,0,0.00,,OVC190,0.00,VWS V13.01,2013-03-14 17:03:00,
2013-03-14 10:08:00,48.0,0.0,30.15,ESE,105,0.0,3.0,0,0.00,,OVC190,0.00,VWS V13.01,2013-03-14 17:08:00,
2013-03-14 10:13:00,48.1,0.0,30.16,SSW,198,0.0,3.0,0,0.00,,OVC190,0.00,VWS V13.01,2013-03-14 17:13:00,
2013-03-14 10:18:00,48.1,0.0,30.15,South,181,1.0,3.0,0,0.00,,OVC190,0.00,VWS V13.01,2013-03-14 17:18:00,
2013-03-14 10:23:00,48.2,0.0,30.15,South,181,0.0,3.0,0,0.00,,OVC190,0.00,VWS V13.01,2013-03-14 17:23:00,
2013-03-14 10:29:00,48.3,0.0,30.15,SSW,193,0.0,3.0,0,0.00,,OVC190,0.00,VWS V13.01,2013-03-14 17:29:00,
2013-03-14 10:34:00,48.4,0.0,30.15,SSW,200,0.0,0.0,0,0.00,,OVC190,0.00,VWS V13.01,2013-03-14 17:34:00,
2013-03-14 10:39:00,48.6,0.0,30.15,SSW,200,0.0,3.0,0,0.00,,OVC190,0.00,VWS V13.01,2013-03-14 17:39:00,
2013-03-14 10:44:00,48.7,0.0,30.16,SSE,167,1.0,5.0,0,0.00,,OVC190,0.00,VWS V13.01,2013-03-14 17:44:00,
2013-03-14 10:49:00,48.8,0.0,30.16,SE,144,0.0,4.0,0,0.00,,OVC190,0.00,VWS V13.01,2013-03-14 17:49:00,
2013-03-14 10:54:00,48.9,0.0,30.16,South,177,0.0,4.0,0,0.00,,OVC190,0.00,VWS V13.01,2013-03-14 17:54:00,
2013-03-14 10:59:00,49.1,0.0,30.17,South,177,0.0,4.0,0,0.00,,OVC190,0.00,VWS V13.01,2013-03-14 17:59:00,
2013-03-14 11:04:00,49.2,0.0,30.17,SSE,168,3.0,6.0,0,0.00,,OVC190,0.00,VWS V13.01,2013-03-14 18:04:00,
2013-03-14 11:09:00,49.2,0.0,30.16,SSW,199,0.0,6.0,0,0.00,,OVC190,0.00,VWS V13.01,2013-03-14 18:09:00,
2013-03-14 11:14:00,49.2,0.0,30.17,South,189,3.0,6.0,0,0.00,,OVC190,0.00,VWS V13.01,2013-03-14 18:14:00,
2013-03-14 11:19:00,49.3,0.0,30.17,SSE,163,2.0,5.0,0,0.00,,OVC190,0.00,VWS V13.01,2013-03-14 18:19:00,
2013-03-14 11:24:00,49.4,0.0,30.16,East,88,0.0,5.0,0,0.00,,OVC190,0.00,VWS V13.01,2013-03-14 18:24:00,
2013-03-14 11:29:00,49.5,0.0,30.17,SSE,147,1.0,5.0,0,0.00,,OVC190,0.00,VWS V13.01,2013-03-14 18:29:00,
2013-03-14 11:34:00,49.5,0.0,30.18,SSE,150,4.0,5.0,0,0.00,,OVC190,0.00,VWS V13.01,2013-03-14 18:34:00,
2013-03-14 11:39:00,49.6,0.0,30.18,SSW,197,2.0,7.0,0,0.00,,OVC190,0.00,VWS V13.01,2013-03-14 18:39:00,
2013-03-14 11:44:00,49.9,0.0,30.18,SW,219,0.0,0.0,0,0.00,,OVC200,0.00,VWS V13.01,2013-03-14 18:44:00,
2013-03-14 11:49:00,50.3,0.0,30.18,SE,135,0.0,4.0,0,0.00,,OVC200,0.00,VWS V13.01,2013-03-14 18:49:00,
2013-03-14 11:54:00,50.6,-34.9,30.17,NW,317,2.0,6.0,2,0.00,,OVC200,0.00,VWS V13.01,2013-03-14 18:54:00,
2013-03-14 11:59:00,50.8,0.0,30.17,NNW,348,0.0,0.0,0,0.00,,OVC200,0.00,VWS V13.01,2013-03-14 18:59:00,
2013-03-14 12:04:00,51.0,-14.0,30.18,SSE,161,4.0,8.0,6,0.00,,OVC200,0.00,VWS V13.01,2013-03-14 19:04:00,
2013-03-14 12:09:00,51.2,-1.5,30.18,South,190,9.0,12.0,11,0.00,,OVC200,0.00,VWS V13.01,2013-03-14 19:09:00,
2013-03-14 12:14:00,51.2,-1.5,30.17,SSE,157,5.0,6.0,11,0.00,,OVC200,0.00,VWS V13.01,2013-03-14 19:14:00,
2013-03-14 12:19:00,51.3,-10.7,30.19,North,360,3.0,12.0,7,0.00,,OVC200,0.00,VWS V13.01,2013-03-14 19:19:00,
2013-03-14 12:24:00,51.5,-7.9,30.18,West,267,3.0,12.0,8,0.00,,OVC200,0.00,VWS V13.01,2013-03-14 19:24:00,
2013-03-14 12:29:00,51.8,-17.0,30.18,NNW,343,0.0,3.0,5,0.00,,OVC200,0.00,VWS V13.01,2013-03-14 19:29:00,
2013-03-14 12:35:00,51.8,4.1,30.18,ENE,63,9.0,12.0,14,0.00,,OVC150,0.00,VWS V13.01,2013-03-14 19:35:00,
2013-03-14 12:40:00,51.7,7.0,30.19,WSW,253,4.0,12.0,16,0.00,,OVC150,0.00,VWS V13.01,2013-03-14 19:40:00,
2013-03-14 12:45:00,51.8,0.8,30.18,SE,145,3.0,6.0,12,0.00,,OVC150,0.00,VWS V13.01,2013-03-14 19:45:00,
2013-03-14 12:50:00,51.8,-3.0,30.18,WSW,239,1.0,6.0,10,0.00,,OVC150,0.00,VWS V13.01,2013-03-14 19:50:00,
2013-03-14 12:55:00,51.8,8.4,30.18,East,87,3.0,13.0,17,0.00,,OVC150,0.00,VWS V13.01,2013-03-14 19:55:00,
2013-03-14 13:00:00,51.9,8.5,30.18,SW,227,9.0,11.0,17,0.00,,OVC150,0.00,VWS V13.01,2013-03-14 20:00:00,
2013-03-14 13:05:00,52.0,11.0,30.19,SE,136,1.0,14.0,19,0.00,,OVC150,0.00,VWS V13.01,2013-03-14 20:05:00,
2013-03-14 13:10:00,52.1,5.9,30.19,SSW,209,2.0,14.0,15,0.00,,OVC150,0.00,VWS V13.01,2013-03-14 20:10:00,
2013-03-14 13:15:00,52.2,8.7,30.19,SW,216,5.0,10.0,17,0.00,,OVC150,0.00,VWS V13.01,2013-03-14 20:15:00,
2013-03-14 13:20:00,52.4,12.5,30.19,SSW,200,3.0,13.0,20,0.00,,OVC150,0.00,VWS V13.01,2013-03-14 20:20:00,
2013-03-14 13:25:00,52.8,3.3,30.19,SE,129,2.0,13.0,13,0.00,,OVC150,0.00,VWS V13.01,2013-03-14 20:25:00,
2013-03-14 13:30:00,53.1,21.7,30.19,SSE,153,0.0,6.0,29,0.00,,OVC150,0.00,VWS V13.01,2013-03-14 20:30:00,
2013-03-14 13:35:00,53.1,22.5,30.18,ESE,122,4.0,12.0,30,0.00,,BKN200,0.00,VWS V13.01,2013-03-14 20:35:00,
2013-03-14 13:41:00,52.8,22.2,30.19,SSE,153,3.0,14.0,30,0.00,,BKN200,0.00,VWS V13.01,2013-03-14 20:41:00,
2013-03-14 13:46:00,53.0,22.4,30.18,NNW,336,2.0,10.0,30,0.00,,BKN200,0.00,VWS V13.01,2013-03-14 20:46:00,
2013-03-14 13:51:00,53.2,22.6,30.19,South,175,6.0,10.0,30,0.00,,BKN200,0.00,VWS V13.01,2013-03-14 20:51:00,
2013-03-14 13:56:00,53.4,25.0,30.18,South,169,2.0,12.0,33,0.00,,BKN200,0.00,VWS V13.01,2013-03-14 20:56:00,
2013-03-14 14:01:00,53.5,23.6,30.18,SW,217,3.0,6.0,31,0.00,,BKN200,0.00,VWS V13.01,2013-03-14 21:01:00,
2013-03-14 14:07:00,53.5,23.6,30.18,SSW,204,0.0,12.0,31,0.00,,BKN200,0.00,VWS V13.01,2013-03-14 21:07:00,
2013-03-14 14:12:00,53.5,18.6,30.18,West,279,1.0,12.0,25,0.00,,BKN200,0.00,VWS V13.01,2013-03-14 21:12:00,
2013-03-14 14:17:00,53.8,21.5,30.17,ESE,117,8.0,8.0,28,0.00,,BKN200,0.00,VWS V13.01,2013-03-14 21:17:00,
2013-03-14 14:22:00,53.9,26.9,30.17,WNW,286,3.0,8.0,35,0.00,,BKN200,0.00,VWS V13.01,2013-03-14 21:22:00,
2013-03-14 14:27:00,54.1,21.7,30.17,SE,130,1.0,8.0,28,0.00,,BKN200,0.00,VWS V13.01,2013-03-14 21:27:00,
2013-03-14 14:32:00,54.3,27.9,30.16,SSW,195,3.0,5.0,36,0.00,,BKN200,0.00,VWS V13.01,2013-03-14 21:32:00,
2013-03-14 14:37:00,54.3,28.6,30.17,SW,221,1.0,12.0,37,0.00,,BKN200,0.00,VWS V13.01,2013-03-14 21:37:00,
2013-03-14 14:42:00,54.5,28.1,30.16,SSW,197,3.0,12.0,36,0.00,,BKN200,0.00,VWS V13.01,2013-03-14 21:42:00,
2013-03-14 14:47:00,54.9,29.8,30.17,SW,226,1.0,6.0,38,0.00,,BKN200,0.00,VWS V13.01,2013-03-14 21:47:00,
2013-03-14 14:52:00,55.1,30.0,30.17,ENE,69,5.0,6.0,38,0.00,,BKN200,0.00,VWS V13.01,2013-03-14 21:52:00,
2013-03-14 14:57:00,55.5,32.2,30.16,South,184,1.0,6.0,41,0.00,,BKN200,0.00,VWS V13.01,2013-03-14 21:57:00,
2013-03-14 15:02:00,55.6,32.9,30.16,SSE,165,0.0,5.0,42,0.00,,BKN200,0.00,VWS V13.01,2013-03-14 22:02:00,
2013-03-14 15:07:00,55.7,27.8,30.15,SSW,192,4.0,5.0,34,0.00,,BKN200,0.00,VWS V13.01,2013-03-14 22:07:00,
2013-03-14 15:12:00,55.6,32.3,30.15,North,9,1.0,6.0,41,0.00,,BKN200,0.00,VWS V13.01,2013-03-14 22:12:00,
2013-03-14 15:17:00,55.9,32.0,30.16,ESE,116,4.0,6.0,40,0.00,,BKN200,0.00,VWS V13.01,2013-03-14 22:17:00,
2013-03-14 15:22:00,56.5,31.2,30.16,East,90,2.0,6.0,38,0.00,,BKN200,0.00,VWS V13.01,2013-03-14 22:22:00,
2013-03-14 15:28:00,56.8,36.8,30.16,East,94,2.0,6.0,47,0.00,,BKN200,0.00,VWS V13.01,2013-03-14 22:28:00,
2013-03-14 15:33:00,56.8,36.8,30.16,SE,130,2.0,6.0,47,0.00,,BKN200,0.00,VWS V13.01,2013-03-14 22:33:00,
2013-03-14 15:38:00,56.7,35.0,30.16,SSE,163,6.0,9.0,44,0.00,,BKN200,0.00,VWS V13.01,2013-03-14 22:38:00,
2013-03-14 15:43:00,56.4,32.4,30.17,SSE,160,1.0,9.0,40,0.00,,BKN150,0.00,VWS V13.01,2013-03-14 22:43:00,
2013-03-14 15:48:00,56.4,34.8,30.18,SSE,157,6.0,6.0,44,0.00,,BKN150,0.00,VWS V13.01,2013-03-14 22:48:00,
2013-03-14 15:53:00,56.3,32.3,30.18,SSE,153,0.0,7.0,40,0.00,,BKN150,0.00,VWS V13.01,2013-03-14 22:53:00,
2013-03-14 15:58:00,56.3,32.9,30.18,South,173,0.0,7.0,41,0.00,,BKN150,0.00,VWS V13.01,2013-03-14 22:58:00,
2013-03-14 16:03:00,56.3,31.7,30.18,South,169,4.0,7.0,39,0.00,,BKN150,0.00,VWS V13.01,2013-03-14 23:03:00,
2013-03-14 16:08:00,56.4,29.8,30.18,SSE,159,2.0,7.0,36,0.00,,BKN150,0.00,VWS V13.01,2013-03-14 23:08:00,
2013-03-14 16:13:00,56.4,32.4,30.19,WNW,294,4.0,7.0,40,0.00,,BKN150,0.00,VWS V13.01,2013-03-14 23:13:00,
2013-03-14 16:18:00,56.3,31.0,30.19,SSW,209,0.0,6.0,38,0.00,,BKN150,0.00,VWS V13.01,2013-03-14 23:18:00,
2013-03-14 16:23:00,56.3,27.6,30.19,South,171,3.0,7.0,33,0.00,,BKN150,0.00,VWS V13.01,2013-03-14 23:23:00,
2013-03-14 16:28:00,56.1,27.4,30.19,South,181,4.0,7.0,33,0.00,,BKN150,0.00,VWS V13.01,2013-03-14 23:28:00,
2013-03-14 16:33:00,56.0,22.5,30.19,SSW,201,5.0,5.0,27,0.00,,BKN140,0.00,VWS V13.01,2013-03-14 23:33:00,
2013-03-14 16:38:00,55.7,18.5,30.19,SSE,151,2.0,9.0,23,0.00,,BKN140,0.00,VWS V13.01,2013-03-14 23:38:00,
2013-03-14 16:43:00,55.3,11.2,30.19,SSE,168,4.0,9.0,17,0.00,,BKN140,0.00,VWS V13.01,2013-03-14 23:43:00,
2013-03-14 16:48:00,54.8,-11.3,30.20,SSW,195,5.0,9.0,6,0.00,,BKN140,0.00,VWS V13.01,2013-03-14 23:48:00,
2013-03-14 16:54:00,54.2,0.0,30.20,South,188,1.0,9.0,0,0.00,,BKN140,0.00,VWS V13.01,2013-03-14 23:54:00,
2013-03-14 16:59:00,53.9,0.0,30.20,South,190,2.0,9.0,0,0.00,,BKN140,0.00,VWS V13.01,2013-03-14 23:59:00,
2013-03-14 17:04:00,53.5,0.0,30.20,SSW,203,3.0,9.0,0,0.00,,BKN140,0.00,VWS V13.01,2013-03-15 00:04:00,
2013-03-14 17:09:00,53.2,0.0,30.20,SSW,202,0.0,9.0,0,0.00,,BKN140,0.00,VWS V13.01,2013-03-15 00:09:00,
2013-03-14 17:14:00,53.2,0.0,30.20,SSW,202,1.0,2.0,0,0.00,,OVC070,0.00,VWS V13.01,2013-03-15 00:14:00,
2013-03-14 17:19:00,53.2,0.0,30.20,SSW,207,1.0,3.0,0,0.00,,OVC070,0.00,VWS V13.01,2013-03-15 00:19:00,
2013-03-14 17:24:00,53.3,0.0,30.20,SSE,159,3.0,3.0,0,0.00,,OVC070,0.00,VWS V13.01,2013-03-15 00:24:00,
2013-03-14 17:29:00,53.1,0.0,30.20,SE,128,1.0,2.0,0,0.00,,OVC070,0.00,VWS V13.01,2013-03-15 00:29:00,
2013-03-14 17:34:00,53.1,0.0,30.19,SSE,150,1.0,5.0,0,0.00,,OVC070,0.00,VWS V13.01,2013-03-15 00:34:00,
2013-03-14 17:40:00,53.0,0.0,30.19,SSE,167,1.0,5.0,0,0.00,,OVC070,0.00,VWS V13.01,2013-03-15 00:40:00,
2013-03-14 17:45:00,53.0,0.0,30.19,SE,133,0.0,1.0,0,0.00,,OVC070,0.00,VWS V13.01,2013-03-15 00:45:00,
2013-03-14 17:50:00,53.0,0.0,30.19,SSE,150,1.0,2.0,0,0.00,,OVC070,0.00,VWS V13.01,2013-03-15 00:50:00,
2013-03-14 17:55:00,53.0,0.0,30.19,ESE,106,2.0,4.0,0,0.00,,OVC070,0.00,VWS V13.01,2013-03-15 00:55:00,
2013-03-14 18:00:00,53.1,0.0,30.19,SSE,148,0.0,3.0,0,0.00,,OVC070,0.00,VWS V13.01,2013-03-15 01:00:00,
2013-03-14 18:05:00,53.1,0.0,30.20,SSE,164,0.0,3.0,0,0.00,,OVC070,0.00,VWS V13.01,2013-03-15 01:05:00,
2013-03-14 18:10:00,53.1,0.0,30.19,South,185,1.0,3.0,0,0.00,,OVC070,0.00,VWS V13.01,2013-03-15 01:10:00,
2013-03-14 18:15:00,53.1,0.0,30.19,SSE,158,0.0,3.0,0,0.00,,OVC070,0.00,VWS V13.01,2013-03-15 01:15:00,
2013-03-14 18:20:00,53.0,0.0,30.19,South,177,0.0,3.0,0,0.00,,OVC070,0.00,VWS V13.01,2013-03-15 01:20:00,
2013-03-14 18:25:00,53.0,0.0,30.19,SSE,156,3.0,3.0,0,0.00,,OVC070,0.00,VWS V13.01,2013-03-15 01:25:00,
2013-03-14 18:30:00,52.9,0.0,30.20,SW,214,0.0,2.0,0,0.00,,OVC070,0.00,VWS V13.01,2013-03-15 01:30:00,
2013-03-14 18:35:00,52.8,0.0,30.20,SSE,157,0.0,2.0,0,0.00,,OVC070,0.00,VWS V13.01,2013-03-15 01:35:00,
2013-03-14 18:41:00,52.8,0.0,30.20,South,185,0.0,3.0,0,0.00,,OVC080,0.00,VWS V13.01,2013-03-15 01:41:00,
2013-03-14 18:46:00,52.7,0.0,30.20,South,172,2.0,2.0,0,0.00,,OVC080,0.00,VWS V13.01,2013-03-15 01:46:00,
2013-03-14 18:51:00,52.6,0.0,30.20,SSE,148,0.0,2.0,0,0.00,,OVC080,0.00,VWS V13.01,2013-03-15 01:51:00,
2013-03-14 18:56:00,52.6,0.0,30.20,SSE,148,0.0,2.0,0,0.00,,OVC080,0.00,VWS V13.01,2013-03-15 01:56:00,
2013-03-14 19:01:00,52.5,0.0,30.20,SE,136,0.0,2.0,0,0.00,,OVC080,0.00,VWS V13.01,2013-03-15 02:01:00,
2013-03-14 19:06:00,52.4,0.0,30.20,SE,144,0.0,3.0,0,0.00,,OVC080,0.00,VWS V13.01,2013-03-15 02:06:00,
2013-03-14 19:12:00,52.3,0.0,30.20,SE,144,0.0,3.0,0,0.00,,OVC080,0.00,VWS V13.01,2013-03-15 02:12:00,
2013-03-14 19:17:00,52.3,0.0,30.21,SE,144,0.0,0.0,0,0.00,,OVC080,0.00,VWS V13.01,2013-03-15 02:17:00,
2013-03-14 19:22:00,52.3,0.0,30.21,SE,144,0.0,1.0,0,0.00,,OVC080,0.00,VWS V13.01,2013-03-15 02:22:00,
2013-03-14 19:27:00,52.2,0.0,30.21,SE,144,0.0,1.0,0,0.00,,OVC080,0.00,VWS V13.01,2013-03-15 02:27:00,
2013-03-14 19:32:00,52.1,0.0,30.21,SE,144,0.0,1.0,0,0.00,,OVC095,0.00,VWS V13.01,2013-03-15 02:32:00,
2013-03-14 19:37:00,52.1,0.0,30.22,SE,144,0.0,1.0,0,0.00,,OVC095,0.00,VWS V13.01,2013-03-15 02:37:00,
2013-03-14 19:42:00,52.0,0.0,30.21,SE,144,0.0,1.0,0,0.00,,OVC095,0.00,VWS V13.01,2013-03-15 02:42:00,
2013-03-14 19:47:00,51.9,0.0,30.21,SE,145,0.0,1.0,0,0.00,,OVC095,0.00,VWS V13.01,2013-03-15 02:47:00,
2013-03-14 19:52:00,51.9,0.0,30.21,SE,145,0.0,1.0,0,0.00,,OVC095,0.00,VWS V13.01,2013-03-15 02:52:00,
2013-03-14 19:57:00,51.8,0.0,30.21,SE,145,0.0,1.0,0,0.00,,OVC095,0.00,VWS V13.01,2013-03-15 02:57:00,
2013-03-14 20:02:00,51.7,0.0,30.22,SE,145,0.0,0.0,0,0.01,,OVC095,0.01,VWS V13.01,2013-03-15 03:02:00,
2013-03-14 20:07:00,51.7,0.0,30.22,SE,145,0.0,0.0,0,0.01,,OVC095,0.01,VWS V13.01,2013-03-15 03:07:00,
2013-03-14 20:13:00,51.6,0.0,30.22,SE,145,0.0,0.0,0,0.01,,OVC095,0.01,VWS V13.01,2013-03-15 03:13:00,
2013-03-14 20:18:00,51.6,0.0,30.22,SE,145,0.0,0.0,0,0.01,,OVC095,0.01,VWS V13.01,2013-03-15 03:18:00,
2013-03-14 20:23:00,51.5,0.0,30.22,SE,145,0.0,0.0,0,0.01,,OVC095,0.01,VWS V13.01,2013-03-15 03:23:00,
2013-03-14 20:28:00,51.5,0.0,30.22,SE,145,0.0,0.0,0,0.02,,OVC095,0.02,VWS V13.01,2013-03-15 03:28:00,
2013-03-14 20:33:00,51.4,0.0,30.21,SE,145,0.0,0.0,0,0.02,,OVC095,0.02,VWS V13.01,2013-03-15 03:33:00,
2013-03-14 20:38:00,51.4,0.0,30.22,SE,145,0.0,0.0,0,0.02,,OVC095,0.02,VWS V13.01,2013-03-15 03:38:00,
2013-03-14 20:43:00,51.4,0.0,30.22,SSE,164,0.0,1.0,0,0.02,,OVC041,0.02,VWS V13.01,2013-03-15 03:43:00,
2013-03-14 20:48:00,51.3,0.0,30.22,SSE,164,0.0,0.0,0,0.02,,OVC041,0.02,VWS V13.01,2013-03-15 03:48:00,
2013-03-14 20:53:00,51.3,0.0,30.22,SSE,164,0.0,0.0,0,0.02,,OVC041,0.02,VWS V13.01,2013-03-15 03:53:00,
2013-03-14 20:58:00,51.3,0.0,30.22,SSE,164,0.0,0.0,0,0.02,,OVC041,0.02,VWS V13.01,2013-03-15 03:58:00,
2013-03-14 21:00:00,51.3,0.0,30.22,SSE,164,0.0,0.0,0,0.02,,OVC041,0.02,VWS V13.01,2013-03-15 04:00:00,
2013-03-14 21:01:00,51.3,0.0,30.22,SSE,164,0.0,0.0,0,0.02,,OVC041,0.02,VWS V13.01,2013-03-15 04:01:00,
2013-03-14 21:02:00,51.3,0.0,30.23,SSE,164,0.0,0.0,0,0.02,,OVC041,0.02,VWS V13.01,2013-03-15 04:02:00,
2013-03-14 21:07:00,51.2,0.0,30.23,SSE,164,0.0,0.0,0,0.02,,OVC041,0.02,VWS V13.01,2013-03-15 04:07:00,
2013-03-14 21:12:00,51.2,0.0,30.23,SSE,164,0.0,1.0,0,0.02,,OVC041,0.02,VWS V13.01,2013-03-15 04:12:00,
2013-03-14 21:17:00,51.2,0.0,30.23,SSE,164,1.0,2.0,0,0.02,,OVC041,0.03,VWS V13.01,2013-03-15 04:17:00,
2013-03-14 21:22:00,51.2,0.0,30.23,SSE,164,0.0,2.0,0,0.02,,OVC041,0.03,VWS V13.01,2013-03-15 04:22:00,
2013-03-14 21:27:00,51.2,0.0,30.24,SSE,164,0.0,2.0,0,0.02,,OVC041,0.03,VWS V13.01,2013-03-15 04:27:00,
2013-03-14 21:32:00,51.2,0.0,30.24,SSE,164,0.0,0.0,0,0.01,,OVC041,0.03,VWS V13.01,2013-03-15 04:32:00,
2013-03-14 21:37:00,51.2,0.0,30.24,SSE,164,0.0,0.0,0,0.02,,OVC041,0.04,VWS V13.01,2013-03-15 04:37:00,
2013-03-14 21:42:00,51.2,0.0,30.24,SSE,164,0.0,0.0,0,0.02,,OVC080,0.04,VWS V13.01,2013-03-15 04:42:00,
2013-03-14 21:47:00,51.2,0.0,30.24,SSE,164,1.0,1.0,0,0.03,,OVC080,0.05,VWS V13.01,2013-03-15 04:47:00,
2013-03-14 21:52:00,51.2,0.0,30.24,SSE,164,0.0,1.0,0,0.03,,OVC080,0.05,VWS V13.01,2013-03-15 04:52:00,
2013-03-14 21:57:00,51.2,0.0,30.24,South,186,0.0,1.0,0,0.03,,OVC080,0.05,VWS V13.01,2013-03-15 04:57:00,
2013-03-14 22:02:00,51.2,0.0,30.24,South,186,0.0,1.0,0,0.03,,OVC080,0.05,VWS V13.01,2013-03-15 05:02:00,
2013-03-14 22:08:00,51.2,0.0,30.24,South,186,0.0,1.0,0,0.03,,OVC080,0.05,VWS V13.01,2013-03-15 05:08:00,
2013-03-14 22:13:00,51.2,0.0,30.24,South,186,0.0,1.0,0,0.03,,OVC080,0.05,VWS V13.01,2013-03-15 05:13:00,
2013-03-14 22:18:00,51.1,0.0,30.25,South,186,0.0,0.0,0,0.02,,OVC080,0.05,VWS V13.01,2013-03-15 05:18:00,
2013-03-14 22:23:00,51.1,0.0,30.25,South,186,0.0,2.0,0,0.03,,OVC080,0.06,VWS V13.01,2013-03-15 05:23:00,
2013-03-14 22:28:00,51.1,0.0,30.25,SSW,200,0.0,2.0,0,0.03,,OVC080,0.06,VWS V13.01,2013-03-15 05:28:00,
2013-03-14 22:33:00,51.1,0.0,30.25,SSW,200,0.0,0.0,0,0.03,,OVC080,0.06,VWS V13.01,2013-03-15 05:33:00,
2013-03-14 22:38:00,51.0,0.0,30.25,South,180,0.0,3.0,0,0.03,,OVC080,0.06,VWS V13.01,2013-03-15 05:38:00,
2013-03-14 22:43:00,51.0,0.0,30.25,SSW,208,0.0,4.0,0,0.03,,OVC055,0.06,VWS V13.01,2013-03-15 05:43:00,
2013-03-14 22:48:00,51.0,0.0,30.26,SSW,198,1.0,5.0,0,0.02,,OVC055,0.06,VWS V13.01,2013-03-15 05:48:00,
2013-03-14 22:53:00,51.0,0.0,30.25,SE,132,2.0,5.0,0,0.02,,OVC055,0.06,VWS V13.01,2013-03-15 05:53:00,
2013-03-14 22:58:00,51.1,0.0,30.25,SSW,205,0.0,5.0,0,0.02,,OVC055,0.06,VWS V13.01,2013-03-15 05:58:00,
2013-03-14 23:03:00,51.1,0.0,30.25,South,184,2.0,3.0,0,0.01,,OVC055,0.06,VWS V13.01,2013-03-15 06:03:00,
2013-03-14 23:08:00,51.2,0.0,30.25,East,93,0.0,3.0,0,0.01,,OVC055,0.06,VWS V13.01,2013-03-15 06:08:00,
2013-03-14 23:13:00,51.2,0.0,30.25,NNW,340,0.0,3.0,0,0.01,,OVC055,0.06,VWS V13.01,2013-03-15 06:13:00,
2013-03-14 23:18:00,51.2,0.0,30.25,WNW,297,1.0,2.0,0,0.01,,OVC055,0.06,VWS V13.01,2013-03-15 06:18:00,
2013-03-14 23:23:00,51.2,0.0,30.25,ESE,105,0.0,2.0,0,0.01,,OVC055,0.06,VWS V13.01,2013-03-15 06:23:00,
2013-03-14 23:28:00,51.2,0.0,30.25,East,88,0.0,2.0,0,0.01,,OVC055,0.06,VWS V13.01,2013-03-15 06:28:00,
2013-03-14 23:33:00,51.2,0.0,30.25,East,88,0.0,0.0,0,0.00,,OVC055,0.06,VWS V13.01,2013-03-15 06:33:00,
2013-03-14 23:38:00,51.2,0.0,30.25,East,88,0.0,0.0,0,0.00,,OVC055,0.06,VWS V13.01,2013-03-15 06:38:00,
2013-03-14 23:43:00,51.2,0.0,30.25,East,88,0.0,0.0,0,0.00,,OVC024,0.06,VWS V13.01,2013-03-15 06:43:00,
2013-03-14 23:49:00,51.1,0.0,30.25,East,88,0.0,0.0,0,0.00,,OVC024,0.06,VWS V13.01,2013-03-15 06:49:00,
2013-03-14 23:54:00,51.1,0.0,30.25,East,88,1.0,1.0,0,0.00,,OVC024,0.06,VWS V13.01,2013-03-15 06:54:00,
2013-03-14 23:59:00,51.1,0.0,30.25,East,88,0.0,2.0,0,0.00,,OVC024,0.06,VWS V13.01,2013-03-15 06:59:00,